Theta_e
324 323 324 323 314 313 318 322 318 321 321 321 322 328 324 323 329 334 328 329 340 342 342 342 343 341 337 337 338 337 337 339 339 339 339 338 338 336 334 330 324 328 326 329 337 339 338 331 321
326 324 324 323 315 313 317 319 320 319 320 321 320 323 325 322 322 323 325 330 342 341 343 343 345 343 337 336 334 333 335 336 337 337 336 337 336 337 334 330 327 324 334 326 335 339 337 330 318
325 325 324 313 313 317 321 320 318 318 319 319 319 322 322 320 320 323 327 331 342 341 341 342 343 343 342 338 337 334 333 333 334 335 335 335 335 336 337 330 329 323 333 337 331 338 334 323 315
325 324 320 315 319 319 318 317 317 318 319 318 320 319 319 319 319 321 325 333 339 340 340 341 342 342 343 341 338 338 338 337 335 335 340 337 334 335 335 333 330 328 322 335 336 334 331 319 315
323 322 313 314 318 319 317 317 317 316 316 316 318 318 318 318 317 316 318 326 337 339 341 339 341 341 339 340 337 338 337 336 336 335 335 335 331 332 332 335 332 331 323 325 335 335 335 325 315
322 317 314 314 318 317 314 314 315 314 315 316 316 319 318 316 313 313 314 316 324 338 338 338 339 339 339 337 336 336 336 335 336 336 334 333 332 334 333 332 335 333 330 321 330 337 333 332 317
316 312 314 313 315 315 315 314 313 313 314 314 314 314 316 311 310 310 311 312 314 318 329 335 336 337 338 339 339 336 333 334 334 335 335 333 331 331 332 332 332 334 334 328 328 337 337 334 329
316 310 313 312 315 316 314 314 314 314 313 313 313 312 315 309 309 309 309 308 309 312 314 317 327 336 335 337 337 338 338 337 332 333 333 333 332 330 330 330 330 332 333 335 334 336 338 337 335
313 311 312 314 316 315 313 313 312 311 311 311 311 310 309 308 308 309 309 307 307 308 309 310 312 315 326 333 336 337 338 338 337 337 335 330 330 330 330 329 328 328 330 332 335 335 335 336 338
312 310 313 312 312 312 311 310 309 309 308 309 310 309 308 308 309 308 308 309 310 310 309 309 308 308 309 314 323 328 333 337 338 336 337 337 330 328 328 329 329 328 327 328 330 333 334 334 336
311 311 312 312 310 311 309 308 308 308 307 308 308 308 309 308 309 310 311 311 311 311 310 310 310 310 309 309 308 310 320 326 332 336 335 335 337 334 332 332 331 328 328 331 333 331 333 333 334
310 309 311 310 308 308 307 307 306 307 307 308 308 308 308 311 311 312 311 311 310 310 310 310 310 309 309 310 310 310 308 310 321 326 336 334 335 336 337 336 335 330 330 332 333 333 332 332 333
308 307 308 308 306 306 306 305 305 306 307 307 308 308 311 312 312 311 310 310 310 310 310 311 310 309 309 309 308 309 310 310 308 311 322 335 335 334 335 336 335 334 334 333 333 333 332 332 333
307 307 307 306 306 306 306 306 306 307 308 308 308 309 311 311 311 310 310 311 311 312 312 312 312 310 309 307 307 308 308 308 309 309 308 317 328 332 333 335 336 334 335 334 333 334 335 332 332
307 305 305 306 306 307 307 305 306 307 308 309 310 311 310 311 311 312 313 313 313 313 313 312 311 310 310 309 307 306 306 307 308 308 309 308 313 321 331 331 331 335 336 335 334 333 333 334 333
306 303 305 306 306 308 305 303 306 309 308 309 309 310 312 313 313 313 313 313 312 312 312 311 311 311 311 311 310 309 307 305 306 307 308 309 308 311 319 329 330 331 332 333 332 331 331 332 333
303 306 307 308 307 308 307 305 307 308 309 309 311 311 312 313 313 313 312 312 311 311 311 311 310 310 309 309 310 311 310 308 306 306 307 308 308 310 317 319 326 329 329 330 331 331 332 332 332
307 305 307 309 308 308 308 307 307 309 309 310 311 312 313 313 312 312 312 311 310 310 310 310 311 310 309 308 309 310 311 310 307 307 307 307 307 308 317 321 320 326 327 329 329 330 330 330 330
307 307 308 310 309 310 309 307 308 309 310 310 310 312 312 312 312 311 310 309 309 310 310 310 310 310 310 310 310 309 309 308 307 307 307 308 307 310 311 317 320 321 326 327 328 328 328 329 330
307 308 309 308 310 311 310 311 310 310 311 311 310 311 312 312 312 310 308 308 309 309 309 310 310 311 310 308 309 311 311 311 312 309 308 309 308 306 306 307 312 319 325 325 326 327 328 329 328
308 307 310 310 310 309 309 307 310 311 310 310 311 311 311 311 309 308 307 308 309 309 310 310 310 311 310 309 309 310 310 311 311 311 311 310 310 310 309 306 307 314 323 325 326 327 328 327 325
311 309 311 312 306 305 309 306 308 310 309 309 310 311 310 309 307 307 306 307 308 308 309 309 310 310 311 309 310 311 311 311 312 312 313 313 312 313 316 316 312 315 319 323 325 326 326 324 322
311 310 311 312 310 305 308 306 309 308 309 308 308 310 309 308 307 306 305 306 307 308 309 309 309 310 311 311 311 311 311 311 311 312 311 311 312 314 315 318 317 319 320 320 324 325 324 323 323
309 311 312 312 309 302 304 308 311 310 309 309 310 310 309 307 306 306 305 305 307 308 308 308 309 310 310 310 311 312 311 310 310 310 310 309 312 312 313 314 317 319 318 316 317 316 324 325 324
311 306 301 303 313 307 309 303 309 309 311 310 310 310 308 307 306 306 305 306 307 308 308 308 308 306 307 308 308 308 308 306 307 307 306 308 306 308 310 311 313 316 316 315 313 315 317 321 321
312 308 301 302 303 307 303 306 308 309 309 311 311 309 308 307 306 306 306 307 307 307 307 308 306 305 306 304 305 302 304 305 307 302 303 304 302 302 302 307 311 313 314 315 314 313 316 319 319
313 309 308 304 299 300 301 304 306 309 309 309 309 308 308 307 307 307 307 307 307 307 308 308 308 307 307 307 308 308 306 304 301 299 298 296 298 296 299 302 303 306 307 310 310 309 304 305 311
312 310 308 303 302 307 302 305 307 311 310 308 308 308 308 308 307 307 307 307 307 307 307 308 307 306 306 306 304 302 301 299 297 296 295 295 295 295 295 295 298 301 299 301 301 301 302 303 304
310 312 311 308 306 308 308 304 303 309 309 309 309 310 310 309 308 307 307 307 307 307 307 308 307 305 301 300 299 298 297 296 295 293 292 292 291 292 291 292 292 292 292 292 293 293 294 294 295
308 310 309 307 306 306 305 306 306 311 310 310 310 310 310 309 309 308 307 307 307 307 307 306 304 300 299 299 299 298 297 295 294 292 290 290 290 290 291 291 291 291 291 291 291 291 291 291 291
Wind_Speed
15 13 12 4 4 5 1 1 3 3 3 2 6 11 9 7 4 4 5 6 3 4 2 2 2 5 5 6 5 4 3 3 2 2 2 3 4 2 3 2 2 2 3 7 8 7 5 1 5
13 13 5 3 5 4 3 3 5 2 1 3 8 8 8 4 6 4 4 5 1 3 2 1 3 5 4 5 5 5 5 4 4 4 4 4 4 5 4 3 4 4 5 5 6 7 7 3 4
14 9 3 4 3 4 4 1 3 3 11 6 4 11 4 3 5 3 7 7 1 2 4 3 5 3 5 5 6 6 6 6 6 6 6 6 6 5 5 4 5 7 7 8 8 9 6 5 5
9 4 5 4 4 2 5 4 4 2 6 8 5 7 6 5 3 6 8 7 0 0 2 4 4 3 4 6 8 8 8 8 8 8 8 8 8 7 7 6 6 8 9 9 8 10 7 6 6
5 3 4 4 3 3 1 2 3 3 3 8 5 2 5 6 7 7 8 7 5 2 2 4 6 5 4 5 7 9 10 11 11 11 11 10 10 10 9 9 8 10 10 10 11 11 10 7 8
3 2 4 4 3 2 1 6 3 5 5 5 6 4 3 6 5 8 9 8 6 3 3 6 7 7 8 7 8 9 11 12 13 13 13 13 12 12 11 11 11 11 11 13 13 14 12 10 10
5 3 5 5 6 2 2 4 5 4 3 6 3 3 6 3 5 8 10 11 8 5 3 5 8 9 9 10 10 11 12 13 14 15 15 16 16 16 15 14 13 13 13 14 15 15 16 13 12
3 4 4 3 4 2 3 2 4 6 3 4 3 3 2 1 2 7 10 11 10 8 7 6 6 9 11 12 13 14 13 14 15 16 17 18 19 19 18 17 16 15 15 16 16 17 17 18 15
2 4 3 2 5 4 1 2 3 2 1 1 2 3 5 1 5 10 13 12 8 8 10 12 12 10 11 14 17 18 18 17 17 16 17 20 21 21 20 20 19 18 17 17 19 20 20 20 21
4 4 3 2 2 4 4 4 1 1 3 0 1 2 1 5 11 14 14 13 13 13 12 14 17 18 18 17 17 18 20 21 20 19 20 20 22 22 22 22 22 21 20 19 21 21 22 23 24
3 4 6 2 5 5 3 3 2 1 1 3 1 5 8 11 11 11 14 16 16 15 15 15 17 18 19 19 20 21 22 22 23 23 22 23 23 22 22 23 23 24 23 23 21 22 24 26 25
6 6 6 5 3 3 3 2 3 6 3 6 4 6 9 8 11 16 14 12 13 13 16 19 20 20 21 22 22 22 22 24 25 23 26 24 27 26 26 23 22 22 25 24 21 23 23 25 27
5 4 6 6 3 2 1 3 4 11 10 11 11 7 5 6 11 7 8 8 10 15 19 22 23 23 23 23 24 26 25 25 25 27 26 29 30 32 30 28 27 26 26 25 26 27 28 28 28
5 10 7 3 2 1 2 2 6 1 2 3 3 4 6 7 5 6 7 9 13 18 23 25 26 24 24 25 26 26 27 27 26 27 27 28 30 34 35 35 32 31 32 31 30 31 29 28 28
9 5 3 2 1 1 4 2 6 6 7 2 2 6 8 4 5 4 6 11 17 21 26 28 27 25 26 26 26 28 29 31 32 30 28 29 30 30 34 34 36 37 36 35 34 34 30 28 26
4 4 3 2 2 1 1 6 5 10 9 5 12 11 7 6 4 4 9 15 21 26 30 28 27 26 27 28 28 27 27 28 30 33 33 30 29 32 30 32 34 34 34 36 37 35 34 32 29
6 2 1 2 2 1 1 6 4 13 8 19 10 7 10 7 4 8 14 20 25 27 23 22 22 22 23 24 24 26 26 26 26 28 30 33 33 30 31 31 33 34 37 38 38 37 35 34 32
3 3 2 0 3 2 3 13 10 22 19 17 9 11 10 4 6 13 18 23 24 19 17 18 20 19 20 22 24 24 24 23 21 20 22 27 29 31 30 32 34 33 36 40 39 39 37 35 33
4 3 1 2 1 4 5 9 17 16 17 16 12 13 7 4 9 16 21 20 15 14 15 17 20 20 23 23 23 23 20 20 19 18 19 23 23 25 30 31 32 32 34 37 38 37 37 35 29
4 2 2 4 2 4 6 15 15 13 7 14 17 10 5 7 13 18 19 13 12 15 16 17 21 23 23 23 22 22 22 20 20 20 22 25 26 27 29 34 35 32 31 37 40 39 38 35 26
4 4 1 2 7 2 8 8 5 1 10 13 10 6 4 9 15 16 16 13 13 15 17 18 20 23 24 23 18 17 15 17 19 21 24 23 25 26 27 29 32 34 31 31 37 42 41 33 30
2 1 2 2 5 2 4 5 6 3 5 5 7 5 6 9 11 13 14 13 13 15 17 16 19 22 25 23 18 19 18 20 19 19 19 22 24 24 23 20 26 28 31 29 35 36 34 31 30
2 1 1 2 1 4 2 2 7 1 5 6 9 7 6 8 10 12 13 13 12 14 16 17 19 20 25 23 19 20 17 16 17 15 18 22 21 17 13 9 15 21 20 31 29 41 37 31 30
1 2 1 0 3 2 4 4 5 3 5 3 5 8 7 7 9 9 10 10 9 10 14 16 15 16 19 21 20 21 21 21 21 20 22 23 18 12 11 11 8 4 7 7 24 25 27 36 30
3 5 3 5 3 5 2 2 9 5 4 5 9 9 6 5 6 6 7 5 7 7 9 13 12 12 15 16 17 19 18 20 20 22 18 16 16 14 12 14 10 7 2 6 5 10 10 23 1
2 4 4 4 2 5 4 6 6 4 10 8 8 7 6 5 5 5 4 3 4 6 6 7 8 10 11 13 16 17 17 19 19 20 20 19 20 19 19 16 13 10 6 6 4 5 11 5 7
1 1 4 4 2 2 3 7 9 6 4 8 11 9 9 8 6 4 3 1 2 3 4 3 4 6 9 10 12 14 14 14 15 15 15 15 17 16 15 15 14 14 12 8 7 4 5 3 2
2 3 2 2 1 5 5 6 7 6 10 9 11 16 13 11 10 6 5 2 3 2 2 2 2 2 5 7 8 9 12 13 14 14 13 13 12 12 12 12 13 12 10 9 7 6 7 6 5
2 2 2 2 4 4 4 6 7 8 9 10 16 15 14 14 14 11 9 7 6 4 2 4 4 4 5 6 9 11 11 12 14 14 14 14 14 14 14 14 13 11 9 7 7 7 8 8 9
5 7 6 4 4 4 2 7 3 6 7 15 13 14 14 16 16 15 13 11 10 8 7 7 8 8 7 7 8 10 12 14 14 16 17 15 15 14 13 14 14 13 13 12 11 11 11 10 9
Wind_Direction
138 139 142 110 64 66 39 36 357 29 45 41 50 84 101 65 50 130 155 353 2 1 313 202 289 251 231 217 220 228 231 223 210 223 231 267 292 272 310 314 241 175 149 158 160 159 186 122 186
139 139 113 98 84 77 285 341 78 35 66 77 87 92 50 74 73 78 166 345 71 4 300 241 247 246 239 236 234 220 219 232 238 238 257 257 269 280 297 282 244 206 193 180 182 189 205 250 206
147 132 87 94 111 138 148 207 160 82 59 70 87 68 70 52 53 63 30 8 147 10 314 279 241 237 251 247 247 247 235 231 238 249 262 265 263 265 273 262 241 230 221 215 205 195 223 248 208
147 109 71 85 106 10 149 188 179 76 57 55 80 62 81 57 45 41 29 17 16 285 302 301 286 272 264 255 257 259 260 258 255 252 255 249 258 262 262 264 247 239 229 216 212 209 228 236 209
117 92 67 82 83 92 97 92 131 83 85 45 60 118 83 72 43 23 18 18 15 10 294 296 298 312 301 265 259 262 266 263 260 257 256 262 266 266 262 259 255 245 236 228 224 224 233 239 222
99 98 75 133 128 139 14 28 74 54 70 49 62 95 89 88 36 11 4 356 5 10 296 289 285 306 327 307 276 267 266 265 265 263 261 262 264 261 265 261 253 249 244 231 234 229 230 239 235
114 90 146 130 153 83 334 31 53 56 55 44 23 75 128 83 11 349 336 336 331 325 322 282 288 283 284 288 295 285 275 268 262 262 262 262 263 262 262 261 255 251 248 239 239 238 231 232 237
105 93 94 39 174 162 339 80 99 82 71 65 30 127 182 124 357 326 319 319 308 301 295 285 277 273 280 281 271 278 279 275 269 267 266 265 265 263 262 260 256 252 248 247 244 242 239 235 237
95 64 87 141 156 173 90 111 54 49 107 60 74 82 112 113 305 297 309 319 312 295 300 299 289 278 267 264 266 269 268 267 268 271 273 267 266 268 266 264 261 256 251 248 247 247 244 240 237
74 87 153 302 135 150 119 112 31 95 12 327 205 178 268 290 289 314 331 332 332 327 317 306 300 294 285 276 272 271 269 266 263 266 275 278 264 261 265 266 263 258 252 248 245 246 246 243 237
63 134 149 69 98 124 101 92 13 117 240 162 261 297 300 310 317 328 334 332 322 311 304 304 298 295 292 289 281 273 270 269 267 261 259 271 272 265 258 262 263 256 247 244 245 247 244 241 240
101 60 131 150 108 112 88 332 305 228 220 177 308 307 319 318 337 339 323 306 305 312 318 313 306 300 297 292 288 285 276 270 268 269 261 257 267 267 263 258 262 258 247 248 246 248 253 252 246
78 118 90 107 82 51 316 271 258 257 258 254 268 276 297 321 337 311 299 297 302 303 307 307 303 298 292 288 288 283 280 277 275 266 263 258 259 264 263 261 256 259 257 253 252 250 252 253 247
101 106 109 79 65 26 3 312 345 305 113 152 204 217 293 298 286 263 261 282 295 303 309 311 307 297 294 289 284 282 283 279 276 274 265 259 259 260 262 259 258 256 254 258 256 252 251 251 247
121 79 55 3 42 7 348 293 232 240 177 194 242 287 298 233 228 251 290 307 312 313 315 312 308 303 299 296 291 287 279 279 279 279 276 268 262 261 263 265 261 252 249 257 258 253 252 250 250
66 50 89 281 213 215 80 267 273 192 188 246 281 285 209 202 229 286 307 311 312 313 313 313 311 308 303 295 287 289 289 280 275 273 273 272 270 264 264 266 262 258 253 256 258 253 249 248 249
13 146 154 280 212 276 134 261 240 168 227 306 301 205 194 199 249 300 311 317 320 320 318 317 319 319 316 313 302 288 289 290 285 277 273 273 271 272 267 269 267 260 259 254 255 255 253 253 253
176 129 77 146 351 329 265 266 250 261 275 277 287 199 194 224 300 312 313 313 317 318 322 321 326 324 319 317 315 301 291 297 294 292 290 281 281 268 274 270 267 264 263 259 253 255 254 252 253
113 103 103 311 99 325 244 272 281 271 266 261 211 192 201 265 306 311 313 319 321 326 332 338 339 342 342 335 327 319 313 308 304 298 302 303 288 275 270 272 273 267 259 260 259 255 252 249 243
55 78 338 289 312 344 305 283 274 281 249 220 189 185 221 289 304 312 320 327 332 340 342 346 351 353 351 342 334 332 323 317 313 310 304 305 299 293 282 274 272 272 269 260 259 254 247 239 228
34 122 60 229 321 260 322 301 331 3 101 135 157 185 258 307 316 324 333 342 342 350 354 354 356 1 357 354 355 342 329 328 319 313 310 310 312 306 295 280 271 271 267 269 265 255 243 228 232
141 251 73 35 36 274 33 278 298 238 163 138 176 220 284 314 317 323 331 342 348 355 353 358 356 359 3 1 9 1 355 345 333 326 320 314 314 319 304 292 277 272 269 276 269 254 231 232 231
171 80 119 192 63 39 333 54 271 131 223 197 215 232 283 298 313 328 336 336 348 360 3 357 351 356 357 356 358 356 353 351 343 337 325 321 314 309 321 290 275 270 271 263 281 252 243 235 240
95 63 303 290 82 3 248 144 279 215 207 182 195 234 264 295 313 323 328 323 339 1 356 354 353 4 350 359 357 355 350 350 339 330 324 322 313 308 325 6 317 251 257 311 274 287 226 225 225
70 52 341 351 1 231 342 28 251 270 237 182 198 229 244 300 307 307 333 329 334 345 359 1 5 13 12 7 22 19 16 17 13 8 360 5 11 13 13 14 340 20 357 256 339 12 247 243 256
180 127 144 233 280 281 357 240 252 245 223 187 202 223 231 267 278 300 313 322 315 342 4 345 14 24 21 10 13 20 12 13 12 13 11 12 16 15 9 10 4 1 22 20 350 304 293 326 257
286 62 164 108 87 18 250 282 291 190 211 212 227 230 238 249 260 276 325 292 298 339 341 349 7 359 4 6 7 1 5 7 12 10 8 11 5 5 4 360 8 360 2 1 4 343 348 2 309
178 154 72 7 311 275 280 267 235 218 224 227 238 233 239 246 251 254 245 206 214 238 278 319 345 338 343 344 343 345 348 349 353 351 349 352 350 346 347 352 356 356 357 1 355 325 313 321 309
123 242 205 132 163 207 294 263 222 216 210 212 233 242 247 249 252 246 241 229 213 207 186 259 272 282 302 322 332 338 341 343 341 342 342 340 340 337 336 338 342 342 337 334 326 316 313 307 302
185 192 161 144 236 236 192 271 296 253 241 214 233 244 250 253 256 252 243 231 225 218 225 248 267 281 292 305 315 325 331 334 336 336 338 340 341 341 336 330 332 328 324 322 321 320 321 318 309